Change the Weather History Date:

Sunday, December 22, 2013

  Actual Average (KYKM) Record (KYKM)
Temperature  
Mean Temperature 44 °F 27 °F  
Max Temperature 52 °F 34 °F 56 °F (1949)
Min Temperature 36 °F 21 °F -10 °F (1983)
Degree Days  
Heating Degree Days 21 38  
Month to date heating degree days 793  
Since 1 July heating degree days 2326  
Cooling Degree Days 0 0  
Month to date cooling degree days 0  
Year to date cooling degree days 472  
Moisture  
Dew Point 36 °F    
Average Humidity 74    
Maximum Humidity 83    
Minimum Humidity 61    
Precipitation  
Precipitation 0.00 in 0.05 in 1.07 in (1964)
Month to date precipitation 1.09  
Year to date precipitation 7.81  
Snow  
Snow 0.00 in 0.30 in 5.20 in (1968)
Month to date snowfall 6.6  
Year to date snowfall 18.8  
Since 1 July snowfall 10.2  
Snow Depth -    
Sea Level Pressure  
Sea Level Pressure 30.19 in    
Wind  
Wind Speed 10 mph (West)    
Max Wind Speed 18 mph    
Max Gust Speed 26 mph    
Visibility 10 miles    
Events      
T = Trace of Precipitation, MM = Missing Value Source: NWS Daily Summary

Daily Weather History Graph

Daily Weather History Graph

Search for Another Location

Airport or City:

Trip Planner

Search our weather history database for the weather conditions in past years. The results will help you decide how hot, cold, wet, or windy it might be!

Date:

Astronomy

Dec. 22, 2013 Rise Set
Actual Time 7:45 AM PST 4:16 PM PST
Civil Twilight 7:10 AM PST 4:51 PM PST
Nautical Twilight 6:31 AM PST 5:30 PM PST
Astronomical Twilight 5:54 AM PST 6:07 PM PST
Moon 9:53 PM PST (12/22) 10:26 AM PST (12/22)
Length of Visible Light 9h 41m
Length of Day
8h 30m
Waning Gibbous, 76% of the Moon is Illuminated
Dec 22
Waning Gibbous
Dec 25
Last Quarter
Jan 1
New
Jan 7
First Quarter
Jan 15
Full

Hourly Weather History & Observations

Time (PST) Temp. Windchill Dew Point Humidity Pressure Visibility Wind Dir Wind Speed Gust Speed Precip Events Conditions
12:53 AM 39.9 °F 32.5 °F 33.1 °F 77% 30.09 in 10.0 mi WNW 12.7 mph - N/A   Partly Cloudy
1:53 AM 39.9 °F 32.5 °F 33.1 °F 77% 30.10 in 10.0 mi WNW 12.7 mph - N/A   Scattered Clouds
2:53 AM 41.0 °F 34.3 °F 34.0 °F 76% 30.12 in 10.0 mi WNW 11.5 mph - N/A   Overcast
3:53 AM 39.0 °F 32.3 °F 32.0 °F 76% 30.13 in 10.0 mi NW 10.4 mph - N/A   Partly Cloudy
4:53 AM 41.0 °F 33.9 °F 33.1 °F 73% 30.13 in 10.0 mi WNW 12.7 mph - N/A   Partly Cloudy
5:53 AM 36.0 °F 33.3 °F 30.9 °F 82% 30.14 in 10.0 mi SE 3.5 mph - N/A   Partly Cloudy
6:53 AM 37.9 °F 35.5 °F 32.0 °F 79% 30.16 in 10.0 mi East 3.5 mph - N/A   Overcast
7:53 AM 37.9 °F 34.4 °F 33.1 °F 83% 30.18 in 10.0 mi SE 4.6 mph - N/A   Overcast
8:53 AM 39.9 °F 37.8 °F 33.1 °F 77% 30.19 in 10.0 mi NNE 3.5 mph - N/A   Mostly Cloudy
9:53 AM 43.0 °F 41.3 °F 34.0 °F 71% 30.20 in 10.0 mi SE 3.5 mph - N/A   Overcast
10:53 AM 45.0 °F 43.5 °F 34.0 °F 65% 30.21 in 10.0 mi South 3.5 mph - N/A   Overcast
11:53 AM 46.9 °F - 36.0 °F 66% 30.21 in 10.0 mi Variable 4.6 mph - N/A   Overcast
12:53 PM 46.9 °F - 37.0 °F 68% 30.21 in 10.0 mi West 5.8 mph - N/A   Overcast
1:53 PM 51.1 °F - 39.0 °F 63% 30.20 in 10.0 mi WNW 15.0 mph - N/A   Overcast
2:53 PM 52.0 °F - 39.0 °F 61% 30.20 in 10.0 mi WNW 18.4 mph 26.5 mph N/A   Scattered Clouds
3:53 PM 50.0 °F - 39.0 °F 66% 30.22 in 10.0 mi WNW 12.7 mph - N/A   Clear
4:53 PM 46.9 °F - 39.0 °F 74% 30.23 in 10.0 mi West 13.8 mph - N/A   Scattered Clouds
5:53 PM 46.9 °F - 39.0 °F 74% 30.24 in 10.0 mi West 13.8 mph - N/A   Mostly Cloudy
6:53 PM 46.0 °F 40.6 °F 37.9 °F 73% 30.24 in 10.0 mi West 11.5 mph - N/A   Clear
7:53 PM 46.0 °F 42.5 °F 39.0 °F 76% 30.24 in 10.0 mi SW 6.9 mph - N/A   Scattered Clouds
8:53 PM 46.9 °F - 39.0 °F 74% 30.23 in 10.0 mi WNW 16.1 mph - N/A   Clear
9:53 PM 46.0 °F 39.9 °F 39.0 °F 76% 30.25 in 10.0 mi WNW 13.8 mph - N/A   Clear
10:53 PM 41.0 °F 38.0 °F 35.1 °F 79% 30.23 in 10.0 mi SSE 4.6 mph - N/A   Clear
11:53 PM 37.9 °F - 32.0 °F 79% 30.23 in 10.0 mi Calm Calm - N/A   Clear